[[{"header":{"parameterUnit":"m.s-1","parameterCategory":1,"la1":30.2992,"la2":30.254,"lo1":-89.0895,"lo2":-89.0443,"dy":0.0025,"dx":0.0025,"nx":19,"ny":19,"refTime":"2026-03-30T03:00:00:Z","depth":0,"parameterNumber":2,"parameterNumberName":"U-component_of_WINDS"},"data":[0,0,0,-4.3147,-4.315,-4.3275,-4.3275,-4.3444,-4.3445,0,0,0,0,0,0,0,0,0,0,0,-4.3116,-4.3118,-4.3147,-4.315,-4.3275,-4.3275,-4.3443,-4.3445,0,0,0,0,0,0,0,0,0,0,0,-4.3116,-4.3117,-4.3119,-4.3151,-4.3275,-4.3275,-4.3443,-4.3345,0,0,0,0,0,0,0,0,0,0,-4.3223,-4.32,-4.3117,-4.3119,-4.3152,-4.3275,-4.3276,-4.3341,-4.3352,-4.3391,0,-4.3428,0,-4.344,-4.3457,-4.3458,0,0,0,-4.3145,-4.3191,-4.3219,-4.3119,-4.3153,-4.3275,-4.3217,-4.3347,-4.3359,-4.3405,-4.3431,-4.3437,-4.3442,-4.3458,-4.3459,-4.3704,-4.3705,0,0,-4.3138,-4.3142,-4.3211,-4.3228,-4.321,-4.3213,-4.3221,-4.3354,-4.3381,-4.3431,-4.344,-4.3445,-4.3459,-4.3461,-4.3703,-4.3704,0,0,0,-4.3122,-4.3137,-4.3162,-4.3221,-4.3243,-4.3217,-4.3226,-4.3375,-4.3383,-4.3442,-4.3447,-4.346,-4.3463,-4.3701,-4.3703,-4.3773,0,0,0,-4.3118,-4.3127,-4.3159,-4.3162,-4.3241,-4.3311,-4.3245,-4.3374,-4.3389,-4.3446,-4.346,-4.3464,-4.37,-4.3702,-4.3767,-4.3804,0,0,0,-4.3106,-4.3126,-4.3146,-4.3162,-4.3216,-4.3309,-4.3324,-4.3377,-4.3392,-4.3458,-4.3465,-4.3699,-4.3702,-4.3763,-4.3796,-4.3867,0,0,0,-4.3094,-4.3206,-4.3147,-4.3275,-4.3215,-4.3352,-4.3323,-4.3425,-4.349,-4.3461,-4.37,-4.3703,-4.3761,-4.3792,-4.3863,-4.3926,-4.3953,0,0,-4.3237,-4.3224,-4.3299,-4.3249,-4.3397,-4.3333,-4.349,-4.3546,-4.355,-4.3652,-4.3658,-4.3769,-4.3796,-4.3866,-4.4112,-4.4133,0,0,0,-4.3345,-4.3398,-4.3437,-4.3499,-4.3545,-4.3587,-4.3619,-4.364,-4.3727,-4.3604,-4.3816,-4.3831,-4.3873,-4.3902,-4.3921,-4.3955,-4.3718,-4.3718,-4.3717,-4.3549,-4.3549,-4.3672,-4.3686,-4.3747,-4.3779,-4.3828,-4.3861,-4.3842,-4.3893,-4.3922,-4.4071,-4.4106,-4.412,-4.4156,-4.3958,-4.3958,-4.3958,-4.3959,-4.3757,-4.3831,-4.3805,-4.3914,-4.3912,-4.4004,-4.404,-4.4024,-4.4108,-4.4049,-4.4085,-4.4017,-4.4144,-4.4175,-4.3964,-4.3963,-4.3962,-4.3962,-4.3961,-4.3888,-4.3923,-4.3948,-4.4037,-4.4107,-4.4118,-4.42,-4.4197,-4.4193,-4.423,-4.4259,-4.4257,-4.4253,-4.4245,-4.4245,-4.4246,-4.4246,-4.4246,-4.4247,-4.4013,-4.4039,-4.4108,-4.4168,-4.4207,-4.4259,-4.4293,-4.4332,-4.4373,-4.4363,-4.4363,-4.4338,-4.4158,-4.4111,-4.4255,-4.4253,-4.4252,-4.4251,-4.4251,-4.4217,-4.4171,-4.4279,-4.4318,-4.4388,-4.4456,-4.4451,-4.453,-4.4561,-4.4601,-4.457,-4.4438,-4.4423,-4.4409,-4.4369,-4.4571,-4.4571,-4.4571,-4.4571,-4.4326,-4.4319,-4.4428,-4.4491,-4.4553,-4.456,-4.4681,-4.4709,-4.4731,-4.475,-4.4722,-4.4671,-4.4656,-4.4649,-4.4629,-4.4592,-4.4847,-4.4847,-4.4847,-4.445,-4.4449,-4.4553,-4.4575,-4.4629,-4.4675,-4.4788,-4.4861,-4.4877,-4.4858,-4.4765,-4.4753,-4.4671,-4.4644,-4.462,-4.4589,-4.4521,0,0]},{"header":{"parameterUnit":"m.s-1","parameterCategory":1,"la1":30.2992,"la2":30.254,"lo1":-89.0895,"lo2":-89.0443,"dy":0.0025,"dx":0.0025,"nx":19,"ny":19,"refTime":"2026-03-30T03:00:00:Z","depth":0,"parameterNumber":3,"parameterNumberName":"V-component_of_WINDS"},"data":[0,0,0,2.7325,2.7326,2.7371,2.7371,2.7432,2.7433,0,0,0,0,0,0,0,0,0,0,0,2.7315,2.7316,2.7325,2.7326,2.7371,2.7371,2.7432,2.7433,0,0,0,0,0,0,0,0,0,0,0,2.7315,2.7315,2.7316,2.7326,2.7371,2.7371,2.7432,2.7396,0,0,0,0,0,0,0,0,0,0,2.7352,2.7347,2.7315,2.7316,2.7326,2.7371,2.7371,2.7394,2.7399,2.7414,0,2.743,0,2.7433,2.7437,2.7438,0,0,0,2.7323,2.7343,2.7353,2.7316,2.7327,2.7371,2.735,2.7397,2.7401,2.7419,2.7431,2.7433,2.7434,2.7438,2.7438,2.7542,2.7543,0,0,2.732,2.7324,2.7349,2.7356,2.7351,2.7348,2.7351,2.7399,2.7411,2.7431,2.7434,2.7435,2.7438,2.7439,2.7541,2.7542,0,0,0,2.7315,2.7323,2.7331,2.7353,2.7361,2.735,2.7353,2.7409,2.7411,2.7435,2.7435,2.7439,2.7439,2.7541,2.7542,2.7578,0,0,0,2.7314,2.732,2.733,2.7333,2.7361,2.7386,2.7362,2.7408,2.7413,2.7435,2.7439,2.744,2.754,2.7541,2.7576,2.7594,0,0,0,2.7311,2.732,2.7328,2.7333,2.7353,2.7385,2.739,2.7409,2.7414,2.7438,2.744,2.754,2.7541,2.7574,2.7591,2.7624,0,0,0,2.7308,2.7358,2.7328,2.7384,2.7352,2.7408,2.739,2.7431,2.7455,2.7439,2.754,2.7542,2.7573,2.7588,2.7621,2.7652,2.7666,0,0,2.7373,2.7366,2.7398,2.7373,2.7436,2.7401,2.7468,2.7485,2.7483,2.7522,2.7525,2.7577,2.759,2.7623,2.7739,2.775,0,0,0,2.742,2.7444,2.7459,2.7484,2.75,2.7515,2.7522,2.7529,2.7563,2.7504,2.7597,2.7605,2.7624,2.7639,2.7648,2.7664,2.7549,2.7548,2.7548,2.7517,2.7513,2.7566,2.7569,2.7593,2.7601,2.762,2.763,2.7617,2.7639,2.765,2.7722,2.7739,2.7746,2.7763,2.7666,2.7667,2.7667,2.7667,2.7611,2.7644,2.7628,2.7675,2.767,2.7708,2.7718,2.7708,2.7742,2.7712,2.7729,2.7696,2.7758,2.7772,2.767,2.7669,2.7669,2.7669,2.7668,2.7674,2.7689,2.7698,2.7735,2.7763,2.7763,2.7798,2.7792,2.7786,2.7802,2.7814,2.7813,2.7812,2.7808,2.7809,2.7809,2.7809,2.7809,2.781,2.7735,2.7744,2.7775,2.7798,2.7814,2.7834,2.7844,2.7859,2.7874,2.7867,2.7867,2.7852,2.7765,2.7743,2.7813,2.7813,2.7812,2.7812,2.7812,2.7831,2.7809,2.7857,2.7874,2.7901,2.793,2.7923,2.7955,2.7966,2.7983,2.7966,2.7902,2.7893,2.7886,2.7868,2.7966,2.7966,2.7966,2.7966,2.7884,2.788,2.7929,2.7956,2.7981,2.798,2.8034,2.8042,2.8047,2.8054,2.8039,2.8014,2.8007,2.8003,2.7993,2.7976,2.8099,2.8099,2.81,2.7943,2.7942,2.7989,2.7996,2.8018,2.8036,2.8086,2.8116,2.8117,2.8105,2.8059,2.8053,2.8014,2.8001,2.7987,2.7972,2.794,0,0]}]]